Location: Gull Harbor
(47.1000°N, 122.9000°W)
Time: 09:31:36
(UTC-07:00)

ISS - Pass Details

Date: 29 March 2019
Orbit: 408 x 410 km, 51.6° (Epoch: 22 April)

Event Time Altitude Azimuth Distance (km) Brightness Sun altitude
Rises 21:21:53 0° 287° (WNW) 2,339 1.7 -17.9°
Reaches altitude 10° 21:24:04 10° 296° (WNW) 1,476 0.3 -18.2°
Maximum altitude 21:27:11 37° 6° (N) 658 -2.6 -18.7°
Enters shadow 21:27:57 32° 39° (NE) 733 -2.7 -18.8°
